Location: Baia Mare
(47.6567°N, 23.5850°E)
Time: 22:36:32
(UTC+03:00)

ISS - Pass Details

Date: 09 September 2019
Orbit: 411 x 421 km, 51.6° (Epoch: 19 September)

Event Time Altitude Azimuth Distance (km) Brightness Sun altitude
Exits shadow 04:56:20 31° 321° (NW) 758 -2.6 -19.3°
Maximum altitude 04:57:21 41° 4° (N) 622 -2.7 -19.2°
Drops below altitude 10° 05:00:33 10° 77° (ENE) 1,493 0.1 -18.7°
Sets 05:02:43 0° 85° (E) 2,358 1.2 -18.4°
